Location: Pel�-Koumbol�
(14.9505°N, 3.0798°W)
Time: 18:43:04
(UTC+00:00)

Cosmos 1190 Rocket - Pass Details

Date: 17 February 2020
Orbit: 756 x 780 km, 74.1° (Epoch: 03 April)

Event Time Altitude Azimuth Distance (km) Brightness Sun altitude
Rises 04:57:48 0° 190° (S) 3,211 7.2 -24.2°
Reaches altitude 10° 05:00:09 10° 188° (S) 2,289 6.4 -23.7°
Maximum altitude 05:05:20 78° 103° (ESE) 784 4.0 -22.4°
Drops below altitude 10° 05:10:35 10° 17° (NNE) 2,308 6.6 -21.2°
Sets 05:12:58 0° 16° (NNE) 3,239 7.3 -20.6°
